Home > Weather > Mazari Sharif > Past weeks

Flag for Afghanistan Weather for the Past 2 Weeks in Mazari Sharif, Afghanistan

Now
63 °F

Scattered clouds.


Feels Like: 63 °F
Forecast: 64 / 86 °F
Wind: 17 mph from Southwest

Location: Termez Airport

Current Time: May 3, 2016 at 6:38:52 AM

Latest Report: May 3, 2016 at 5:30 AM


Visibility: N/A

Pressure: 29.92 "Hg

Humidity: 88%

Dew Point: 59 °F

Location of Mazari SharifLocation

Historic Weather in Mazari Sharif — Graph

°F

Mazari Sharif Temperature Yesterday

Maximum temperature yesterday: 84 °F (at 1:00 PM)
Minimum temperature yesterday: 68 °F (at 11:30 PM)
Average temperature yesterday: 77 °F

High & Low Weather Summary for the Past Weeks

 TemperatureHumidityPressure
High100 °F (Apr 30, 3:00 PM)100% (Apr 22, 5:30 AM)30.21 "Hg (Apr 22, 5:30 AM)
Low52 °F (Apr 22, 5:00 AM)9% (Apr 29, 3:00 PM)29.71 "Hg (Apr 30, 5:30 PM)
Average73 °F44%29.95 "Hg
* Reported Apr 18 4:30 AM — May 3 4:30 AM, Mazari Sharif, Weather by CustomWeather, © 2016

Note: Actual official high and low records may vary slightly from our data, if they occured in-between our weather recording intervals... More about our weather records

Advertising

Mazari Sharif Weather History for the Previous 24 Hours

Scroll right to see more
 ConditionsComfort  
Time TempWeatherWind HumidityBarometerVisibility
4:30 AM
Tue, May 3
63 °FPassing clouds.15 mph88%29.92 "HgN/A
3:30 AM63 °FPassing clouds.18 mph83%29.89 "HgN/A
2:30 AM64 °FPassing clouds.22 mph73%29.86 "Hg4 mi
1:30 AM66 °FPassing clouds.21 mph68%29.86 "Hg5 mi
12:30 AM66 °FPassing clouds.22 mph68%29.86 "Hg5 mi
11:30 PM
Mon, May 2
68 °FPassing clouds.16 mph56%29.86 "Hg4 mi
10:30 PM70 °FPassing clouds.17 mph53%29.86 "HgN/A
10:00 PM70 °FPassing clouds.17 mph57%29.86 "HgN/A
9:30 PM70 °FPassing clouds.14 mph60%29.86 "Hg4 mi
9:00 PM72 °FPassing clouds.14 mph57%29.86 "Hg4 mi
8:30 PM72 °FPassing clouds.17 mph57%29.83 "Hg2 mi
8:00 PM73 °FPassing clouds.20 mph50%29.83 "Hg1 mi
7:30 PM73 °FPassing clouds.23 mph50%29.80 "Hg1 mi
7:00 PM77 °FSprinkles. Passing clouds.21 mph42%29.80 "Hg1 mi
6:30 PM79 °FPartly sunny.22 mph39%29.80 "Hg2 mi
6:00 PM81 °FPartly sunny.20 mph37%29.77 "Hg2 mi
5:30 PM79 °FPartly sunny.18 mph42%29.77 "Hg2 mi
5:00 PM82 °FPartly sunny.15 mph35%29.77 "HgN/A
4:30 PM84 °FPartly sunny.12 mph33%29.77 "HgN/A
3:30 PM84 °FPartly sunny.12 mph33%29.77 "HgN/A
3:00 PM82 °FPartly sunny.12 mph37%29.77 "HgN/A
2:30 PM84 °FScattered clouds.9 mph33%29.77 "HgN/A
2:00 PM84 °FPassing clouds.7 mph35%29.80 "HgN/A
1:30 PM84 °FPassing clouds.10 mph33%29.80 "HgN/A
1:00 PM84 °FPassing clouds.9 mph35%29.80 "HgN/A
12:30 PM82 °FPassing clouds.10 mph37%29.83 "HgN/A
12:00 PM82 °FPassing clouds.13 mph40%29.83 "HgN/A
11:30 AM82 °FPassing clouds.13 mph40%29.86 "HgN/A
11:00 AM82 °FPassing clouds.12 mph37%29.86 "HgN/A
10:30 AM81 °FPassing clouds.9 mph45%29.86 "HgN/A
9:30 AM79 °FPassing clouds.14 mph45%29.86 "HgN/A
9:00 AM77 °FPassing clouds.15 mph47%29.86 "HgN/A
8:30 AM77 °FPassing clouds.15 mph47%29.86 "HgN/A
7:00 AM73 °FScattered clouds.14 mph53%29.83 "HgN/A
6:30 AM72 °FScattered clouds.14 mph57%29.83 "HgN/A
6:00 AM72 °FScattered clouds.13 mph57%29.80 "HgN/A
Weather by CustomWeather, © 2016

See weather overviewHow to use our weather pages